SCP
0 -0 -0 -0 -0 -0 -0 -0 -0 -0 -0 -0 -0 -0 -0 -0 -0 -0 -0 -0 -0 -0 -0 -0 -0 -0 -0 -0 -0 -0 -0 -0 -0 -0 -0 -0 -0 0 -0 -0 0 0 -0
0 0 -0 -0 -0 -0 -0 -0 -0 -0 -0 -0 -0 -0 -0 -0 -0 -0 -0 -0 -0 -0 -0 -0 -0 -0 -0 -0 -0 -0 -0 -0 -0 -0 -0 -0 -0 -0 -0 -0 0 0 -0
0 0 -0 -0 -0 -0 -0 -0 -0 -0 -0 -0 -0 -0 -0 -0 -0 -0 -0 -0 -0 -0 -0 -0 -0 -0 -0 -0 -0 -0 -0 -0 -0 -0 -0 0 0 -0 -0 -0 -0 -0 0
0 -0 -0 -0 -0 -0 -0 0 0 -0 -0 -0 -0 -0 -0 -0 -0 -0 -0 -0 -0 -0 -0 -0 -0 -0 -0 -0 -0 -0 -0 -0 -0 -0 -0 0 0 -0 -0 -0 -0 -0 -0
-0 -0 -0 -0 -0 0 0 -0 0 -0 -0 -0 -0 -0 -0 -0 -0 -0 -0 -0 -0 -0 -0 -0 -0 -0 -0 -0 -0 -0 -0 -0 -0 0 0 0 0 -0 -0 -0 0 0 0
-0 -0 -0 -0 -0 0 0 -0 0 -0 -0 -0 -0 -0 -0 -0 -0 -0 -0 -0 -0 -0 -0 -0 -0 -0 -0 -0 -0 -0 -0 -0 0 0 0 0 0 -0 0 0 0 0 0
-0 -0 -0 -0 -0 0 -0 0 -0 -0 -0 -0 -0 -0 -0 -0 -0 -0 -0 -0 -0 -0 -0 -0 -0 -0 -0 -0 -0 -0 -0 -0 0 0 0 0 0 0 0 0 0 0 0
-0 0 0 -0 -0 -0 0 0 -0 -0 -0 -0 -0 -0 -0 -0 -0 -0 -0 -0 -0 -0 -0 -0 -0 -0 -0 -0 -0 -0 -0 0 0 0 0 0 0 0 0 0 0 0 0
-0 0 0 0 0 0 0 0 0 -0 -0 -0 -0 -0 -0 -0 -0 -0 -0 -0 -0 -0 -0 -0 -0 -0 -0 -0 -0 -0 0 0 0 0 0 0 0 0 0 0 0 0 0
-0 0 0 0 0 0 -0 0 0 0 -0 -0 -0 -0 0 -0 -0 -0 -0 -0 -0 -0 -0 -0 -0 -0 -0 -0 0 0 0 0 0 0 0 0 0 0 0 0 0 0 0
0 0 0 0 0 0 0 0 0 0 0 -0 -0 -0 -0 -0 -0 -0 -0 -0 -0 -0 -0 -0 -0 -0 -0 0 0 0 0 0 0 0 0 0 0 0 0 0 0 0 0
0 0 0 0 -0 -0 0 0 0 0 0 0 0 -0 0 0 0 0 0 -0 -0 -0 -0 -0 -0 0 0 0 0 0 0 0 0 0 0 0 0 0 0 0 0 0 0
0 0 -0 0 0 0 -0 -0 -0 -0 -0 -0 -0 -0 -0 -0 0 -0 -0 -0 -0 -0 -0 0 0 0 0 0 0 0 0 0 0 0 0 0 0 0 0 0 0 0 0
0 0 -0 -0 0 -0 0 0 -0 -0 -0 0 -0 -0 -0 -0 0 0 -0 -0 -0 -0 0 0 0 0 0 0 0 0 0 0 0 0 0 0 0 0 0 0 0 0 0
-0 0 -0 0 0 0 0 -0 0 -0 0 -0 -0 -0 -0 -0 -0 -0 0 0 0 0 0 0 0 0 0 0 0 0 0 0 0 0 0 0 0 0 0 0 0 0 0
0 0 0 0 0 0 -0 -0 0 -0 -0 -0 -0 -0 -0 0 0 0 0 0 0 0 0 0 0 0 0 0 0 0 0 0 0 0 0 0 0 0 0 0 0 0 0
0 0 0 0 0 0 0 -0 -0 -0 -0 -0 -0 -0 0 0 0 0 0 0 0 0 0 0 0 0 0 0 0 0 0 0 0 0 0 0 0 0 0 0 0 0 0
0 0 0 0 0 0 0 0 0 0 0 0 0 0 0 0 0 0 0 0 0 0 0 0 0 0 0 0 0 0 0 0 0 0 0 0 0 0 0 0 0 0 0
0 0 0 0 0 0 0 0 0 0 0 0 0 0 0 0 0 0 0 0 0 0 0 0 0 0 0 0 0 0 0 0 0 0 0 0 0 0 0 0 0 0 0
0 0 0 0 0 0 0 0 0 0 0 0 0 0 0 0 0 0 0 0 0 0 0 0 0 0 0 0 0 0 0 0 0 0 0 0 0 0 0 0 0 0 0
0 0 0 0 0 0 0 0 0 0 0 0 0 0 0 0 0 0 0 0 0 0 0 0 0 0 0 0 0 0 0 0 0 0 0 0 0 0 0 0 0 0 0
0 0 0 0 0 0 0 0 0 0 0 0 0 0 0 0 0 0 0 0 0 0 0 0 0 0 0 0 0 0 0 0 0 0 0 0 0 0 0 0 0 0 0
0 0 0 0 0 0 0 0 0 0 0 0 0 0 0 0 0 0 0 0 0 0 0 0 0 0 0 0 0 0 0 0 0 0 0 0 0 0 0 0 0 0 0
0 0 0 0 0 0 0 0 0 0 0 0 0 0 0 0 0 0 0 0 0 0 0 0 0 0 0 0 0 0 0 0 0 0 0 0 0 0 0 0 0 0 0
0 0 0 0 0 0 0 0 0 0 0 0 0 0 0 0 0 0 0 0 0 0 0 0 0 0 0 0 0 0 0 0 0 0 0 0 0 0 0 0 0 0 0
0 0 0 0 0 0 0 0 0 0 0 0 0 0 0 0 0 0 0 0 0 0 0 0 0 0 0 0 0 0 0 0 0 0 0 0 0 0 0 0 0 0 0
Wind_Speed_500mb
28 26 26 23 23 22 18 19 15 17 21 23 23 23 22 21 18 20 20 21 33 36 31 28 29 26 24 22 21 21 20 20 20 22 23 19 16 20 25 24 19 19 19
31 29 26 18 18 19 14 13 14 16 20 23 21 19 16 15 16 20 24 30 36 35 31 28 24 22 21 22 23 22 23 25 24 24 26 37 38 34 28 32 37 29 27
31 28 22 15 18 19 20 19 17 18 21 25 28 29 19 18 16 16 22 34 35 35 30 26 25 25 26 28 31 33 33 33 31 28 26 32 28 27 29 35 34 32 30
30 29 19 20 20 20 20 21 27 24 25 28 29 26 21 20 22 32 34 35 35 37 32 30 29 31 34 36 36 34 31 31 31 31 37 35 32 24 23 22 27 27 28
33 28 26 23 20 20 22 26 31 22 26 31 30 32 31 31 31 34 36 36 35 33 34 30 29 31 33 34 36 35 32 31 32 34 33 32 30 32 30 21 21 23 23
34 30 27 25 22 22 24 30 33 23 28 29 28 31 28 29 32 33 34 35 32 27 28 27 29 32 32 34 33 33 32 32 31 32 31 28 27 26 29 29 25 24 24
33 30 27 25 24 23 24 25 26 27 29 29 26 26 26 28 29 30 27 28 28 27 26 26 25 28 29 30 32 33 31 29 30 30 30 30 27 30 30 29 28 26 26
28 31 28 28 26 23 24 23 24 22 24 26 26 25 27 28 29 27 26 25 25 22 23 25 24 26 27 29 31 32 31 27 27 28 30 32 32 34 35 35 34 34 32
27 28 29 31 28 24 23 24 23 24 22 25 25 26 27 28 29 26 25 24 22 21 21 22 23 26 26 27 29 29 30 29 29 31 32 34 33 36 36 35 35 35 35
30 26 29 32 29 26 24 23 23 24 23 22 24 26 26 27 27 24 23 23 21 20 20 20 20 21 21 22 24 27 29 30 33 35 35 36 35 35 35 35 36 36 35
35 32 29 31 30 26 25 25 23 22 21 21 22 21 22 22 22 22 20 20 19 16 15 15 15 16 17 19 21 22 25 27 30 32 32 32 33 33 34 34 34 33 32
41 38 32 30 30 28 26 24 23 22 21 20 19 18 18 18 17 17 18 16 15 13 11 10 12 14 15 16 18 18 20 23 25 27 28 28 28 28 29 30 31 31 31
43 38 36 32 30 29 26 25 23 21 18 18 16 16 15 15 14 13 13 12 11 10 8 7 9 12 12 13 14 15 16 18 20 22 23 24 25 27 28 29 30 30 30
48 43 37 35 31 28 27 23 21 19 18 16 14 13 12 12 11 10 9 8 8 7 6 5 5 8 9 10 11 11 12 13 15 18 20 23 25 27 29 32 34 36 37
48 43 40 37 35 31 28 26 22 20 17 16 14 11 10 9 9 8 8 7 5 4 4 3 3 5 7 8 8 10 11 11 14 16 18 21 24 27 30 32 33 34 31
50 46 44 42 37 34 30 27 25 24 22 19 16 15 12 10 8 6 5 5 4 3 2 0 1 4 5 5 5 7 9 11 14 18 20 21 26 29 31 33 33 35 36
52 47 46 44 41 38 35 32 29 27 26 24 21 20 18 15 13 11 9 7 7 6 5 5 4 4 4 4 5 6 9 13 18 23 25 28 32 33 32 34 34 33 39
52 50 48 46 46 43 39 36 33 32 31 29 27 26 24 21 20 17 15 14 14 12 11 10 8 8 8 9 11 12 15 17 20 24 29 34 33 32 30 28 35 35 36
53 53 51 49 48 44 40 38 36 33 32 30 31 30 26 22 20 20 18 18 18 17 15 12 11 10 10 12 14 14 14 14 21 26 30 30 25 27 31 33 34 37 38
56 56 53 51 50 45 42 42 40 38 35 31 28 29 27 24 22 22 19 18 19 19 14 12 10 11 17 21 23 22 23 21 26 20 21 26 30 26 30 35 36 36 40
57 60 61 61 56 55 54 53 52 48 43 40 37 30 31 31 29 27 23 21 16 12 12 14 17 17 21 25 31 33 30 28 25 15 24 31 28 26 35 33 37 39 40
59 63 65 65 63 60 58 55 53 48 46 45 42 33 33 35 35 31 29 26 25 22 22 20 21 23 28 29 28 30 23 34 13 33 34 36 30 34 36 37 50 42 44
63 67 66 66 67 63 62 60 60 56 56 50 46 43 40 35 38 35 35 34 32 29 28 27 29 30 34 34 30 21 13 8 39 37 42 29 32 37 42 47 41 38 37
66 61 64 63 66 63 63 66 68 65 60 56 50 46 43 37 40 43 41 37 36 35 36 34 40 37 31 24 22 26 26 25 20 16 35 53 43 48 43 42 39 39 42
66 65 67 66 68 66 67 67 68 70 66 58 51 43 45 41 32 41 43 43 40 42 40 40 37 30 26 26 27 32 33 30 27 29 31 32 47 40 36 35 38 46 47
68 67 70 75 77 75 74 72 73 72 68 63 56 47 48 34 24 27 32 37 41 39 40 37 31 26 24 25 28 28 25 25 27 23 31 38 36 34 27 22 37 36 39
Wind_Direction_500mb
148 139 131 129 129 130 131 120 120 127 133 136 139 126 117 110 110 99 89 86 87 94 96 102 94 89 84 77 73 69 66 61 54 55 62 63 73 71 63 50 58 60 53
146 140 135 131 114 116 126 130 130 124 135 136 141 138 142 131 115 107 101 95 96 97 94 91 85 78 76 75 71 68 67 62 58 55 64 71 59 66 63 60 55 53 54
152 143 146 125 116 117 121 123 119 125 112 115 114 112 134 123 118 123 110 99 100 94 90 85 80 77 76 75 74 73 71 67 62 61 62 74 71 64 58 72 73 60 65
154 147 145 135 121 120 119 117 110 100 104 111 115 111 122 118 115 109 105 102 99 96 88 89 79 74 69 71 70 68 66 60 57 61 67 69 57 60 63 62 70 73 72
157 150 143 136 124 115 107 111 112 110 100 110 104 110 103 110 111 107 104 103 99 96 97 92 80 75 73 69 67 62 60 63 64 66 68 64 62 56 56 65 56 56 50
156 149 146 141 128 111 108 112 110 117 101 102 101 101 104 106 106 109 109 108 106 103 91 89 83 72 73 68 62 60 62 66 64 59 67 68 62 57 58 54 57 63 62
153 152 149 143 133 118 110 116 115 112 100 102 104 103 105 104 102 103 105 106 106 98 84 86 81 73 74 64 58 55 58 69 63 61 61 62 52 49 53 54 53 60 52
158 155 155 151 139 126 118 118 117 116 110 103 100 101 101 103 102 98 98 99 100 94 81 81 75 72 69 60 56 56 65 67 63 62 62 57 48 52 50 50 47 46 45
167 162 161 160 153 138 127 120 120 118 114 107 102 101 103 111 106 100 95 94 95 87 85 81 74 66 59 55 54 57 64 66 64 65 61 57 54 51 49 47 46 46 45
171 173 173 168 166 154 137 127 121 118 115 114 107 102 104 105 99 97 98 95 90 86 80 74 68 61 57 57 59 65 68 68 67 66 63 60 57 54 51 48 46 43 41
178 179 181 174 171 165 152 142 135 129 124 118 111 106 104 103 100 96 100 99 99 96 87 81 70 61 58 56 58 66 67 66 65 63 61 59 55 52 48 44 41 37 34
183 182 183 179 176 174 170 159 153 145 134 122 116 116 114 114 111 103 101 106 105 103 92 75 64 57 54 53 59 66 66 68 67 63 58 53 48 43 37 32 27 22 20
186 191 183 183 184 181 179 174 168 158 145 136 131 126 121 119 120 114 108 108 113 111 109 90 64 47 47 54 60 65 70 70 66 56 48 41 35 29 23 18 14 10 6
193 191 190 188 188 188 188 189 184 177 164 157 153 144 134 125 119 117 116 110 104 109 114 105 75 39 43 55 60 65 69 71 55 43 30 24 20 15 7 1 357 353 350
202 200 197 198 196 195 197 197 197 195 190 183 179 175 166 156 148 141 132 130 124 118 113 121 83 38 40 43 55 61 60 48 34 22 14 8 4 0 354 348 344 340 337
205 207 206 203 204 207 204 207 209 209 207 206 206 206 203 204 199 189 179 169 176 186 181 166 39 24 33 38 37 35 25 10 3 357 353 351 345 342 340 336 333 332 331
206 208 214 213 212 213 215 214 215 219 221 221 222 224 226 228 228 228 230 229 236 243 250 268 291 306 329 345 346 345 345 343 339 337 334 334 332 331 328 328 330 327 326
211 212 213 216 218 219 222 224 221 224 228 228 232 233 233 232 234 238 241 243 247 254 261 268 277 288 299 307 308 314 316 326 335 333 328 328 327 330 330 331 331 327 329
218 217 216 218 221 223 225 226 227 225 229 235 237 237 239 236 237 240 245 247 248 255 263 273 286 301 313 307 305 305 308 314 316 309 318 327 332 335 328 323 328 322 326
223 224 223 224 223 223 223 224 227 226 228 231 235 237 243 242 241 250 255 256 257 256 258 275 292 310 313 314 309 309 300 297 308 327 329 345 321 323 320 320 325 326 332
224 226 226 225 226 226 225 225 226 229 230 233 232 234 237 242 243 249 252 260 262 267 268 274 286 292 297 303 301 293 293 304 310 321 325 325 320 327 330 326 329 325 323
226 227 226 229 227 230 232 233 234 235 236 237 239 239 244 245 246 248 252 256 261 263 267 273 277 282 286 289 296 319 323 317 311 320 318 324 319 325 330 324 326 319 321
230 227 228 229 229 227 230 233 235 237 239 239 236 238 243 247 248 250 253 257 262 262 262 264 267 265 271 285 282 292 308 277 308 319 316 316 318 320 328 332 340 334 337
232 233 233 231 233 231 230 231 235 238 240 243 244 244 251 259 242 250 252 254 256 255 258 261 263 275 272 281 281 281 289 293 296 298 299 310 311 330 348 351 348 341 337
234 235 236 234 233 233 232 234 238 241 244 247 248 250 250 245 247 243 246 247 249 253 257 261 264 263 277 282 290 289 285 290 285 296 310 307 316 340 348 344 337 333 334
234 236 237 237 234 232 233 234 238 241 243 242 239 237 239 240 235 232 241 245 249 250 257 258 258 265 271 281 279 271 274 277 288 296 304 311 317 342 346 338 332 337 339
Wind_Speed_850mb
28 26 26 23 23 22 18 19 15 17 21 23 23 23 22 21 18 20 20 21 33 36 31 28 29 26 24 22 21 21 20 20 20 22 23 19 16 20 25 24 19 19 19
31 29 26 18 18 19 14 13 14 16 20 23 21 19 16 15 16 20 24 30 36 35 31 28 24 22 21 22 23 22 23 25 24 24 26 37 38 34 28 32 37 29 27
31 28 22 15 18 19 20 19 17 18 21 25 28 29 19 18 16 16 22 34 35 35 30 26 25 25 26 28 31 33 33 33 31 28 26 32 28 27 29 35 34 32 30
30 29 19 20 20 20 20 21 27 24 25 28 29 26 21 20 22 32 34 35 35 37 32 30 29 31 34 36 36 34 31 31 31 31 37 35 32 24 23 22 27 27 28
33 28 26 23 20 20 22 26 31 22 26 31 30 32 31 31 31 34 36 36 35 33 34 30 29 31 33 34 36 35 32 31 32 34 33 32 30 32 30 21 21 23 23
34 30 27 25 22 22 24 30 33 23 28 29 28 31 28 29 32 33 34 35 32 27 28 27 29 32 32 34 33 33 32 32 31 32 31 28 27 26 29 29 25 24 24
33 30 27 25 24 23 24 25 26 27 29 29 26 26 26 28 29 30 27 28 28 27 26 26 25 28 29 30 32 33 31 29 30 30 30 30 27 30 30 29 28 26 26
28 31 28 28 26 23 24 23 24 22 24 26 26 25 27 28 29 27 26 25 25 22 23 25 24 26 27 29 31 32 31 27 27 28 30 32 32 34 35 35 34 34 32
27 28 29 31 28 24 23 24 23 24 22 25 25 26 27 28 29 26 25 24 22 21 21 22 23 26 26 27 29 29 30 29 29 31 32 34 33 36 36 35 35 35 35
30 26 29 32 29 26 24 23 23 24 23 22 24 26 26 27 27 24 23 23 21 20 20 20 20 21 21 22 24 27 29 30 33 35 35 36 35 35 35 35 36 36 35
35 32 29 31 30 26 25 25 23 22 21 21 22 21 22 22 22 22 20 20 19 16 15 15 15 16 17 19 21 22 25 27 30 32 32 32 33 33 34 34 34 33 32
41 38 32 30 30 28 26 24 23 22 21 20 19 18 18 18 17 17 18 16 15 13 11 10 12 14 15 16 18 18 20 23 25 27 28 28 28 28 29 30 31 31 31
43 38 36 32 30 29 26 25 23 21 18 18 16 16 15 15 14 13 13 12 11 10 8 7 9 12 12 13 14 15 16 18 20 22 23 24 25 27 28 29 30 30 30
48 43 37 35 31 28 27 23 21 19 18 16 14 13 12 12 11 10 9 8 8 7 6 5 5 8 9 10 11 11 12 13 15 18 20 23 25 27 29 32 34 36 37
48 43 40 37 35 31 28 26 22 20 17 16 14 11 10 9 9 8 8 7 5 4 4 3 3 5 7 8 8 10 11 11 14 16 18 21 24 27 30 32 33 34 31
50 46 44 42 37 34 30 27 25 24 22 19 16 15 12 10 8 6 5 5 4 3 2 0 1 4 5 5 5 7 9 11 14 18 20 21 26 29 31 33 33 35 36
52 47 46 44 41 38 35 32 29 27 26 24 21 20 18 15 13 11 9 7 7 6 5 5 4 4 4 4 5 6 9 13 18 23 25 28 32 33 32 34 34 33 39
52 50 48 46 46 43 39 36 33 32 31 29 27 26 24 21 20 17 15 14 14 12 11 10 8 8 8 9 11 12 15 17 20 24 29 34 33 32 30 28 35 35 36
53 53 51 49 48 44 40 38 36 33 32 30 31 30 26 22 20 20 18 18 18 17 15 12 11 10 10 12 14 14 14 14 21 26 30 30 25 27 31 33 34 37 38
56 56 53 51 50 45 42 42 40 38 35 31 28 29 27 24 22 22 19 18 19 19 14 12 10 11 17 21 23 22 23 21 26 20 21 26 30 26 30 35 36 36 40
57 60 61 61 56 55 54 53 52 48 43 40 37 30 31 31 29 27 23 21 16 12 12 14 17 17 21 25 31 33 30 28 25 15 24 31 28 26 35 33 37 39 40
59 63 65 65 63 60 58 55 53 48 46 45 42 33 33 35 35 31 29 26 25 22 22 20 21 23 28 29 28 30 23 34 13 33 34 36 30 34 36 37 50 42 44
63 67 66 66 67 63 62 60 60 56 56 50 46 43 40 35 38 35 35 34 32 29 28 27 29 30 34 34 30 21 13 8 39 37 42 29 32 37 42 47 41 38 37
66 61 64 63 66 63 63 66 68 65 60 56 50 46 43 37 40 43 41 37 36 35 36 34 40 37 31 24 22 26 26 25 20 16 35 53 43 48 43 42 39 39 42
66 65 67 66 68 66 67 67 68 70 66 58 51 43 45 41 32 41 43 43 40 42 40 40 37 30 26 26 27 32 33 30 27 29 31 32 47 40 36 35 38 46 47
68 67 70 75 77 75 74 72 73 72 68 63 56 47 48 34 24 27 32 37 41 39 40 37 31 26 24 25 28 28 25 25 27 23 31 38 36 34 27 22 37 36 39
Wind_Direction_850mb
148 139 131 129 129 130 131 120 120 127 133 136 139 126 117 110 110 99 89 86 87 94 96 102 94 89 84 77 73 69 66 61 54 55 62 63 73 71 63 50 58 60 53
146 140 135 131 114 116 126 130 130 124 135 136 141 138 142 131 115 107 101 95 96 97 94 91 85 78 76 75 71 68 67 62 58 55 64 71 59 66 63 60 55 53 54
152 143 146 125 116 117 121 123 119 125 112 115 114 112 134 123 118 123 110 99 100 94 90 85 80 77 76 75 74 73 71 67 62 61 62 74 71 64 58 72 73 60 65
154 147 145 135 121 120 119 117 110 100 104 111 115 111 122 118 115 109 105 102 99 96 88 89 79 74 69 71 70 68 66 60 57 61 67 69 57 60 63 62 70 73 72
157 150 143 136 124 115 107 111 112 110 100 110 104 110 103 110 111 107 104 103 99 96 97 92 80 75 73 69 67 62 60 63 64 66 68 64 62 56 56 65 56 56 50
156 149 146 141 128 111 108 112 110 117 101 102 101 101 104 106 106 109 109 108 106 103 91 89 83 72 73 68 62 60 62 66 64 59 67 68 62 57 58 54 57 63 62
153 152 149 143 133 118 110 116 115 112 100 102 104 103 105 104 102 103 105 106 106 98 84 86 81 73 74 64 58 55 58 69 63 61 61 62 52 49 53 54 53 60 52
158 155 155 151 139 126 118 118 117 116 110 103 100 101 101 103 102 98 98 99 100 94 81 81 75 72 69 60 56 56 65 67 63 62 62 57 48 52 50 50 47 46 45
167 162 161 160 153 138 127 120 120 118 114 107 102 101 103 111 106 100 95 94 95 87 85 81 74 66 59 55 54 57 64 66 64 65 61 57 54 51 49 47 46 46 45
171 173 173 168 166 154 137 127 121 118 115 114 107 102 104 105 99 97 98 95 90 86 80 74 68 61 57 57 59 65 68 68 67 66 63 60 57 54 51 48 46 43 41
178 179 181 174 171 165 152 142 135 129 124 118 111 106 104 103 100 96 100 99 99 96 87 81 70 61 58 56 58 66 67 66 65 63 61 59 55 52 48 44 41 37 34
183 182 183 179 176 174 170 159 153 145 134 122 116 116 114 114 111 103 101 106 105 103 92 75 64 57 54 53 59 66 66 68 67 63 58 53 48 43 37 32 27 22 20
186 191 183 183 184 181 179 174 168 158 145 136 131 126 121 119 120 114 108 108 113 111 109 90 64 47 47 54 60 65 70 70 66 56 48 41 35 29 23 18 14 10 6
193 191 190 188 188 188 188 189 184 177 164 157 153 144 134 125 119 117 116 110 104 109 114 105 75 39 43 55 60 65 69 71 55 43 30 24 20 15 7 1 357 353 350
202 200 197 198 196 195 197 197 197 195 190 183 179 175 166 156 148 141 132 130 124 118 113 121 83 38 40 43 55 61 60 48 34 22 14 8 4 0 354 348 344 340 337
205 207 206 203 204 207 204 207 209 209 207 206 206 206 203 204 199 189 179 169 176 186 181 166 39 24 33 38 37 35 25 10 3 357 353 351 345 342 340 336 333 332 331
206 208 214 213 212 213 215 214 215 219 221 221 222 224 226 228 228 228 230 229 236 243 250 268 291 306 329 345 346 345 345 343 339 337 334 334 332 331 328 328 330 327 326
211 212 213 216 218 219 222 224 221 224 228 228 232 233 233 232 234 238 241 243 247 254 261 268 277 288 299 307 308 314 316 326 335 333 328 328 327 330 330 331 331 327 329
218 217 216 218 221 223 225 226 227 225 229 235 237 237 239 236 237 240 245 247 248 255 263 273 286 301 313 307 305 305 308 314 316 309 318 327 332 335 328 323 328 322 326
223 224 223 224 223 223 223 224 227 226 228 231 235 237 243 242 241 250 255 256 257 256 258 275 292 310 313 314 309 309 300 297 308 327 329 345 321 323 320 320 325 326 332
224 226 226 225 226 226 225 225 226 229 230 233 232 234 237 242 243 249 252 260 262 267 268 274 286 292 297 303 301 293 293 304 310 321 325 325 320 327 330 326 329 325 323
226 227 226 229 227 230 232 233 234 235 236 237 239 239 244 245 246 248 252 256 261 263 267 273 277 282 286 289 296 319 323 317 311 320 318 324 319 325 330 324 326 319 321
230 227 228 229 229 227 230 233 235 237 239 239 236 238 243 247 248 250 253 257 262 262 262 264 267 265 271 285 282 292 308 277 308 319 316 316 318 320 328 332 340 334 337
232 233 233 231 233 231 230 231 235 238 240 243 244 244 251 259 242 250 252 254 256 255 258 261 263 275 272 281 281 281 289 293 296 298 299 310 311 330 348 351 348 341 337
234 235 236 234 233 233 232 234 238 241 244 247 248 250 250 245 247 243 246 247 249 253 257 261 264 263 277 282 290 289 285 290 285 296 310 307 316 340 348 344 337 333 334
234 236 237 237 234 232 233 234 238 241 243 242 239 237 239 240 235 232 241 245 249 250 257 258 258 265 271 281 279 271 274 277 288 296 304 311 317 342 346 338 332 337 339